Weather History for Jackson, TN

Change the Weather History Date:

Wednesday, May 8, 2013

  Actual Average Record
Temperature  
Mean Temperature 65 °F 66 °F  
Max Temperature 80 °F 78 °F 90 °F (1952)
Min Temperature 49 °F 55 °F 41 °F (1954)
Degree Days  
Heating Degree Days 0 2  
Month to date heating degree days 50 20  
Since 1 July heating degree days 3634 3546  
Cooling Degree Days 0 4  
Month to date cooling degree days 5 25  
Year to date cooling degree days 61 84  
Growing Degree Days 15 (Base 50)    
Moisture  
Dew Point 55 °F    
Average Humidity 69    
Maximum Humidity 96    
Minimum Humidity 42    
Precipitation  
Precipitation 0.00 in 0.19 in 2.21 in (1972)
Month to date precipitation 1.73 1.52  
Year to date precipitation 28.12 19.37  
Snow  
Snow 0.00 in 0.00 in - ()
Month to date snowfall 0.0 0.0  
Since 1 July snowfall 1.4 4.6  
Snow Depth 0.00 in    
Sea Level Pressure  
Sea Level Pressure 30.04 in    
Wind  
Wind Speed 3 mph (WSW)    
Max Wind Speed 10 mph    
Max Gust Speed 13 mph    
Visibility 10 miles    
Events      
T = Trace of Precipitation, MM = Missing Value Source: NWS Daily Summary

Daily Weather History Graph

Daily Weather History Graph

Search for Another Location

Airport:

Trip Planner

Search our weather history database for the weather conditions in past years. The results will help you decide how hot, cold, wet, or windy it might be!

Date:

Astronomy

May. 08, 2013 Rise Set
Actual Time 5:56 AM CDT 7:48 PM CDT
Civil Twilight 5:28 AM CDT 8:16 PM CDT
Nautical Twilight 4:55 AM CDT 8:49 PM CDT
Astronomical Twilight 4:19 AM CDT 9:25 PM CDT
Moon 5:01 AM CDT (5/8) 6:48 PM CDT (5/8)
Length of Visible Light 14h 47m
Length of Day
13h 51m
Waning Crescent, 2% of the Moon is Illuminated
May 8
Waning Crescent
May 9
New
May 17
First Quarter
May 24
Full
May 31
Last Quarter

Hourly Weather History & Observations

Time (CDT) Temp. Heat Index Dew Point Humidity Pressure Visibility Wind Dir Wind Speed Gust Speed Precip Events Conditions
12:53 AM 54.0 °F - 52.0 °F 93% 30.01 in 10.0 mi SSW 3.5 mph - N/A   Clear
1:53 AM 53.1 °F - 51.1 °F 93% 30.00 in 10.0 mi SSW 3.5 mph - 0.01 in   Clear
2:53 AM 52.0 °F - 50.0 °F 93% 30.00 in 10.0 mi Calm Calm - N/A   Clear
3:53 AM 53.1 °F - 51.1 °F 93% 30.01 in 10.0 mi South 4.6 mph - N/A   Clear
4:53 AM 50.0 °F - 48.9 °F 96% 30.01 in 7.0 mi Calm Calm - N/A   Clear
5:53 AM 50.0 °F - 48.0 °F 93% 30.02 in 9.0 mi Calm Calm - N/A   Clear
6:53 AM 53.1 °F - 51.1 °F 93% 30.04 in 8.0 mi Calm Calm - N/A   Clear
7:53 AM 61.0 °F - 57.0 °F 87% 30.06 in 10.0 mi Calm Calm - N/A   Clear
8:19 AM 64.4 °F - 57.2 °F 77% 30.07 in 10.0 mi West 3.5 mph - N/A   Scattered Clouds
8:53 AM 68.0 °F - 59.0 °F 73% 30.07 in 10.0 mi West 5.8 mph - N/A   Clear
9:53 AM 72.0 °F - 59.0 °F 64% 30.08 in 10.0 mi WNW 5.8 mph - N/A   Clear
10:53 AM 75.0 °F - 57.9 °F 55% 30.08 in 10.0 mi Calm Calm - N/A   Clear
11:53 AM 75.9 °F - 57.9 °F 54% 30.08 in 10.0 mi Variable 4.6 mph - N/A   Partly Cloudy
12:53 PM 77.0 °F - 55.9 °F 48% 30.06 in 10.0 mi Variable 5.8 mph - N/A   Partly Cloudy
1:53 PM 79.0 °F - 55.9 °F 45% 30.05 in 10.0 mi Variable 5.8 mph - N/A   Partly Cloudy
2:53 PM 78.1 °F - 57.0 °F 48% 30.04 in 10.0 mi NNW 4.6 mph - N/A   Mostly Cloudy
3:53 PM 80.1 °F 80.1 °F 55.0 °F 42% 30.03 in 10.0 mi West 6.9 mph - N/A   Scattered Clouds
4:53 PM 79.0 °F - 55.9 °F 45% 30.02 in 10.0 mi West 4.6 mph - N/A   Partly Cloudy
5:53 PM 79.0 °F - 55.9 °F 45% 30.02 in 10.0 mi NW 5.8 mph - N/A   Clear
6:53 PM 77.0 °F - 57.0 °F 50% 30.01 in 10.0 mi Calm Calm - N/A   Clear
7:53 PM 66.9 °F - 57.9 °F 73% 30.01 in 10.0 mi Calm Calm - N/A   Clear
8:53 PM 63.0 °F - 57.0 °F 81% 30.02 in 10.0 mi SSW 3.5 mph - N/A   Clear
9:53 PM 60.1 °F - 57.0 °F 90% 30.04 in 10.0 mi Calm Calm - N/A   Scattered Clouds
10:53 PM 60.1 °F - 57.0 °F 90% 30.03 in 10.0 mi Calm Calm - N/A   Partly Cloudy
11:53 PM 57.9 °F - 55.9 °F 93% 30.03 in 10.0 mi SSW 3.5 mph - N/A   Clear